Branson, MO

5:59 AM CDT on July 22, 2017 (GMT -0500)
Branson

Weather History for KBBG - April, 2013

Change the Weather History Date:

Monday, April 22, 2013

  Actual Average (KHRO) Record (KHRO)
Temperature  
Mean Temperature 56 °F -  
Max Temperature 69 °F 73 °F 92 °F (1955)
Min Temperature 42 °F 49 °F 26 °F (1927)
Degree Days  
Heating Degree Days 10    
Growing Degree Days 6 (Base 50)    
Moisture  
Dew Point 38 °F    
Average Humidity 54    
Maximum Humidity 81    
Minimum Humidity 26    
Precipitation  
Precipitation 0.00 in - - ()
Sea Level Pressure  
Sea Level Pressure 30.11 in    
Wind  
Wind Speed 9 mph (SE)    
Max Wind Speed 16 mph    
Max Gust Speed 22 mph    
Visibility 10 miles    
Events      
Averages and records for this station are not official NWS values.
T = Trace of Precipitation, MM = Missing Value Source: NWS Daily Summary

Daily Weather History Graph

Daily Weather History Graph

Search for Another Location

Airport or City:

Trip Planner

Search our weather history database for the weather conditions in past years. The results will help you decide how hot, cold, wet, or windy it might be!

Date:

Astronomy

Apr. 22, 2013 Rise Set
Actual Time 6:29 AM CDT 7:53 PM CDT
Civil Twilight 6:02 AM CDT 8:20 PM CDT
Nautical Twilight 5:30 AM CDT 8:52 PM CDT
Astronomical Twilight 4:56 AM CDT 9:27 PM CDT
Moon 4:47 PM CDT 4:19 AM CDT
Length of Visible Light 14h 17m
Length of Day
13h 23m
Waxing Gibbous, 88% of the Moon is Illuminated
Apr 22
Waxing Gibbous
Apr 25
Full
May 2
Last Quarter
May 9
New
May 17
First Quarter

Hourly Weather History & Observations

Time (CDT) Temp. Windchill Dew Point Humidity Pressure Visibility Wind Dir Wind Speed Gust Speed Precip Events Conditions
12:35 AM 50.0 °F - 35.6 °F 58% 30.23 in 10.0 mi SE 8.1 mph - N/A   Clear
12:55 AM 50.0 °F - 37.4 °F 62% 30.23 in 10.0 mi SE 8.1 mph - N/A   Clear
1:15 AM 50.0 °F - 35.6 °F 58% 30.23 in 10.0 mi SE 9.2 mph - N/A   Clear
1:35 AM 50.0 °F - 35.6 °F 58% 30.22 in 10.0 mi SSE 9.2 mph - N/A   Clear
1:55 AM 50.0 °F - 35.6 °F 58% 30.22 in 10.0 mi SE 10.4 mph - N/A   Clear
2:15 AM 48.2 °F - 35.6 °F 62% 30.21 in 10.0 mi SE 10.4 mph - N/A   Clear
2:35 AM 48.2 °F - 35.6 °F 62% 30.20 in 10.0 mi SE 9.2 mph - N/A   Clear
2:55 AM 48.2 °F - 35.6 °F 62% 30.19 in 10.0 mi SE 9.2 mph - N/A   Clear
3:15 AM 48.2 °F - 35.6 °F 62% 30.19 in 10.0 mi SE 8.1 mph - N/A   Clear
3:35 AM 48.2 °F - 35.6 °F 62% 30.18 in 10.0 mi SE 8.1 mph - N/A   Clear
3:55 AM 48.2 °F - 37.4 °F 66% 30.17 in 10.0 mi SE 8.1 mph - N/A   Clear
4:15 AM 46.4 °F 42.9 °F 35.6 °F 66% 30.17 in 10.0 mi ESE 6.9 mph - N/A   Clear
4:55 AM 46.4 °F 42.9 °F 35.6 °F 66% 30.17 in 10.0 mi ESE 6.9 mph - N/A   Clear
5:15 AM 44.6 °F 42.2 °F 37.4 °F 76% 30.17 in 10.0 mi ESE 4.6 mph - N/A   Clear
5:35 AM 44.6 °F - 35.6 °F 71% 30.17 in 10.0 mi Calm Calm - N/A   Clear
5:55 AM 44.6 °F - 37.4 °F 76% 30.17 in 10.0 mi Calm Calm - N/A   Clear
6:15 AM 44.6 °F 41.4 °F 37.4 °F 76% 30.17 in 10.0 mi ESE 5.8 mph - N/A   Clear
6:35 AM 42.8 °F 38.6 °F 37.4 °F 81% 30.17 in 10.0 mi ESE 6.9 mph - N/A   Clear
6:50 AM 44.6 °F 40.7 °F 37.4 °F 76% 30.17 in 10.0 mi ESE 6.9 mph - N/A   Mostly Cloudy
7:57 AM 46.4 °F 43.5 °F 37.4 °F 71% 30.18 in 10.0 mi SE 5.8 mph - N/A   Scattered Clouds
8:51 AM 53.6 °F - 35.6 °F 51% 30.16 in 10.0 mi SE 9.2 mph - N/A   Scattered Clouds
9:50 AM 59.0 °F - 33.8 °F 39% 30.16 in 10.0 mi SE 9.2 mph - N/A   Mostly Cloudy
10:52 AM 62.6 °F - 37.4 °F 39% 30.15 in 10.0 mi ESE 11.5 mph - N/A   Mostly Cloudy
11:53 AM 66.2 °F - 35.6 °F 32% 30.13 in 10.0 mi SE 13.8 mph - N/A   Mostly Cloudy
12:47 PM 68.0 °F - 35.6 °F 30% 30.10 in 10.0 mi South 16.1 mph - N/A   Mostly Cloudy
1:50 PM 68.0 °F - 35.6 °F 30% 30.05 in 10.0 mi South 13.8 mph - N/A   Mostly Cloudy
2:45 PM 68.0 °F - 32.0 °F 26% 30.02 in 10.0 mi SE 13.8 mph 18.4 mph N/A   Overcast
3:45 PM 69.8 °F - 33.8 °F 27% 29.99 in 10.0 mi SSE 12.7 mph 19.6 mph N/A   Overcast
4:53 PM 68.0 °F - 33.8 °F 28% 29.98 in 10.0 mi SE 13.8 mph 20.7 mph N/A   Overcast
5:50 PM 68.0 °F - 37.4 °F 33% 29.95 in 10.0 mi SE 15.0 mph 20.7 mph N/A   Scattered Clouds
6:45 PM 68.0 °F - 39.2 °F 35% 29.96 in 10.0 mi SE 12.7 mph 21.9 mph N/A   Mostly Cloudy
7:55 PM 64.4 °F - 41.0 °F 42% 29.97 in 10.0 mi SE 11.5 mph - N/A   Scattered Clouds
8:45 PM 62.6 °F - 42.8 °F 48% 29.98 in 10.0 mi SE 8.1 mph - N/A   Mostly Cloudy
9:15 PM 60.8 °F - 42.8 °F 52% 29.99 in 10.0 mi SE 9.2 mph - N/A   Partly Cloudy
9:35 PM 60.8 °F - 42.8 °F 52% 30.00 in 10.0 mi SE 4.6 mph - N/A   Clear
9:55 PM 59.0 °F - 42.8 °F 55% 30.01 in 10.0 mi SE 8.1 mph - N/A   Clear
10:15 PM 59.0 °F - 42.8 °F 55% 30.02 in 10.0 mi SE 8.1 mph - N/A   Clear
10:35 PM 59.0 °F - 42.8 °F 55% 30.02 in 10.0 mi SE 6.9 mph - N/A   Clear
10:55 PM 59.0 °F - 42.8 °F 55% 30.01 in 10.0 mi SE 8.1 mph - N/A   Clear
11:15 PM 59.0 °F - 42.8 °F 55% 30.01 in 10.0 mi SE 9.2 mph - N/A   Clear
11:35 PM 59.0 °F - 42.8 °F 55% 30.00 in 10.0 mi SE 9.2 mph - N/A   Clear
11:55 PM 59.0 °F - 42.8 °F 55% 30.00 in 10.0 mi SE 10.4 mph - N/A   Clear